Find Kuiper-00010

NORAD ID: 63726 Int'l Des: 2025-088 Owner: KUIP Country: US Constellation: amazon-leo operational
LEOCIRCULAR

当前视图

正在加载3D地球...

About Kuiper-00010

Kuiper-00010 (NORAD 63726) is a amazon-leo constellation satellite launched Apr 28, 2025 by KUIP of US. It operates in LEO, CIRCULAR orbit with a mass of 490.00 kg.

关于 Kuiper-00010

正在加载描述...

即将过境

Passes for default location (London). Set your location on the main map for personalized predictions.

高度历史

Loading altitude history...

两行轨道根数

1 63726U 25088C 26195.39366317 .00000244 00000-0 60966-4 0 9999
2 63726 51.9009 242.8261 0000352 100.1255 259.9747 14.79935785 66495
Epoch: Jul 14, 2026 • Age: 9 hours

当前状态

高度 630.4 km
远地点 / 近地点 N/A
速度 7.54 km/s
星下点 -1.20°S, 146.03°W
发射日期 Apr 28, 2025
运行时间 1.2 years
类型 internet

技术详情

分类 Payload
质量 490.00 kg
干质量 490.00 kg
总质量 490.00 kg
长度 1.80 m
直径 0.70 m
跨度 5.00 m
形状 Box + 2 pan
制造商 KUIP
平台类型 Kuiper
阶段状态 In Orbit
所有者/国家 KUIP/US

Most Searched